Theta_e
338 338 337 337 336 335 334 334 334 332 332 331 330 329 330 330 330 329 330 332 334 333 333 332 332 333 333 333 333 332 331 329 325 322 321 321 320 319 320 320 320 319
339 338 338 337 336 336 335 334 333 332 331 331 330 329 330 331 331 330 331 332 333 333 333 332 332 332 333 333 332 332 330 328 324 320 320 320 318 316 315 315 316 315
339 339 338 338 337 336 335 334 333 332 332 332 331 330 330 331 332 331 331 333 333 333 333 333 333 333 333 332 331 330 328 326 322 318 318 319 316 314 313 312 311 310
340 339 339 338 337 336 335 334 333 332 332 333 332 331 331 332 332 332 332 333 333 333 333 333 333 332 332 332 330 328 326 323 319 317 319 317 313 312 311 309 308 307
339 340 339 338 337 336 335 335 333 333 332 332 332 331 332 332 332 333 333 332 332 333 333 333 333 332 332 331 329 327 325 321 318 318 320 316 311 310 308 306 305 304
339 340 339 338 337 336 336 335 334 333 332 332 331 331 331 331 332 333 333 333 332 332 333 333 332 332 332 330 329 327 325 322 321 322 321 316 311 308 306 304 303 303
339 340 339 338 337 337 336 335 334 334 333 332 331 331 331 331 332 334 333 333 332 332 332 332 332 332 332 330 329 327 325 324 324 323 320 314 309 306 304 303 302 302
340 339 340 339 337 337 336 335 334 334 334 333 332 331 330 330 333 334 333 333 332 332 332 331 331 331 331 330 329 327 326 325 323 320 315 311 307 305 303 302 301 301
340 339 339 339 338 337 336 335 335 335 335 334 333 331 330 331 334 335 333 333 332 332 331 330 330 330 330 329 328 327 326 324 320 315 311 308 305 304 302 301 301 301
339 339 339 339 338 337 336 336 335 336 335 335 333 331 330 332 335 335 334 333 332 332 331 329 329 329 329 329 327 326 326 322 316 311 309 307 304 303 301 300 300 300
340 339 339 339 338 337 336 336 336 336 336 335 333 331 331 334 335 335 334 333 333 332 330 329 328 329 329 328 327 326 324 319 313 309 308 306 304 302 300 300 300 300
340 338 338 338 339 338 337 336 336 336 336 335 333 331 333 335 335 335 334 333 333 332 330 329 328 329 329 327 326 325 321 316 312 309 307 306 303 301 300 300 300 300
340 338 338 338 339 338 337 337 337 337 337 335 333 332 334 335 335 335 334 333 332 332 330 329 329 329 329 327 326 324 320 315 311 308 307 305 303 301 300 300 299 299
340 339 338 338 339 338 337 337 337 337 337 336 333 333 335 334 334 335 334 333 333 332 330 329 329 330 328 327 326 324 320 315 311 308 306 305 303 301 300 300 299 299
340 339 338 338 338 338 338 338 337 337 337 336 334 334 334 334 334 335 334 333 333 332 330 329 329 329 328 326 325 323 319 315 311 309 307 305 302 301 300 300 299 299
340 339 338 338 338 338 338 338 337 337 337 335 334 334 334 333 334 335 334 333 332 331 330 329 329 328 327 326 325 322 318 315 312 310 307 305 303 301 300 300 299 299
339 339 337 337 338 338 338 338 337 337 337 335 334 334 334 333 334 335 334 333 332 330 330 329 328 327 326 325 324 322 318 315 313 310 308 305 302 301 300 299 299 299
338 337 336 336 337 338 338 338 337 336 336 335 333 334 334 333 334 335 333 332 331 330 329 328 327 326 325 325 324 321 319 316 314 312 309 305 303 301 300 299 299 299
337 336 336 335 336 337 337 337 336 335 334 334 333 333 333 334 335 334 332 331 330 329 329 328 327 326 326 325 324 321 318 317 316 313 310 306 303 301 300 299 299 299
337 336 336 336 336 336 336 336 336 335 333 333 333 333 333 334 334 332 331 330 329 328 328 327 326 326 326 325 324 321 318 317 316 313 310 306 303 301 300 300 299 299
336 336 336 336 336 335 336 337 336 335 334 334 333 333 334 334 332 331 331 330 328 328 328 327 326 326 326 325 324 321 318 317 316 313 309 305 303 301 300 300 300 299
336 336 336 336 336 335 335 337 337 335 334 333 333 334 334 333 331 331 330 329 328 328 328 327 326 326 326 325 324 321 319 317 315 311 308 305 303 302 301 300 300 300
337 336 336 336 335 334 335 337 337 335 333 333 334 335 334 332 331 330 330 329 327 327 327 326 326 326 326 325 323 321 319 317 314 310 307 305 304 302 301 301 300 300
337 337 337 336 335 334 335 337 336 334 333 334 334 334 333 332 330 330 329 329 327 326 326 325 326 326 325 324 323 321 319 316 314 311 308 306 305 303 302 302 301 301
337 337 337 336 335 334 335 337 335 333 332 333 333 333 333 332 330 329 330 329 327 326 325 326 326 326 324 324 323 321 319 316 313 311 308 307 306 304 303 302 301 302
337 337 337 336 335 333 335 336 335 333 332 332 332 333 331 330 329 330 330 329 327 326 325 325 326 325 323 323 323 321 319 317 314 311 310 309 308 306 304 303 303 303
Wind_Speed
39 38 37 37 36 36 36 35 33 30 28 27 26 24 23 22 21 21 19 17 18 18 17 15 16 18 17 15 14 14 14 15 15 14 14 13 14 14 14 14 14 15
40 39 37 36 35 35 34 34 32 30 28 26 24 22 21 20 19 19 18 17 17 17 17 16 17 17 15 14 13 13 14 15 15 14 14 14 14 13 13 13 14 15
41 39 37 36 36 34 33 33 32 30 27 25 23 22 21 19 17 17 17 17 17 16 15 16 16 16 15 14 13 14 15 14 15 14 14 14 14 13 13 13 14 14
41 39 36 35 34 33 32 32 31 29 28 25 23 22 21 19 17 17 17 17 16 15 15 14 15 15 14 13 13 15 16 15 15 15 14 14 13 13 13 13 14 13
41 38 36 34 34 33 33 32 30 29 28 25 23 22 22 19 17 17 17 17 16 15 15 15 15 14 14 13 13 15 16 15 15 15 14 13 13 13 13 13 13 13
40 38 36 35 34 34 33 32 31 29 27 25 23 23 22 20 18 17 17 17 16 16 16 16 15 14 14 14 13 14 15 14 15 15 14 14 14 14 13 12 13 13
41 40 37 35 34 33 33 33 30 29 27 25 24 23 22 21 19 17 17 16 16 15 15 15 14 14 14 14 13 13 14 14 14 15 15 14 14 13 12 12 13 13
42 40 38 36 35 34 34 33 30 29 28 26 25 23 22 21 20 18 17 17 16 15 15 14 13 13 14 14 13 13 14 14 14 14 15 14 14 12 11 12 12 12
43 40 38 37 35 35 34 33 31 30 28 27 25 24 22 21 20 18 18 17 17 16 15 14 13 14 14 14 14 14 15 15 14 14 14 13 11 11 11 12 12 11
43 40 39 38 37 35 34 33 32 30 29 27 26 24 23 22 20 18 18 19 18 16 15 14 13 14 14 14 14 14 15 14 14 14 13 11 10 11 12 12 12 11
45 41 39 39 38 36 35 33 32 31 30 28 27 25 23 21 20 19 20 20 19 17 16 14 13 14 15 14 13 14 14 14 14 13 12 11 11 12 12 13 12 11
46 42 40 39 39 37 35 34 32 31 30 29 27 26 24 22 20 19 20 20 19 18 16 14 14 15 15 15 14 13 14 15 14 13 12 11 12 12 12 13 12 11
47 43 40 39 39 38 36 34 33 31 30 29 28 26 24 22 21 19 20 20 19 18 16 14 14 16 17 15 14 14 14 14 13 12 12 12 12 13 13 13 13 12
48 44 42 40 38 38 37 35 33 31 30 30 28 27 25 23 21 19 19 20 19 18 16 15 16 17 17 16 14 14 15 14 13 12 12 12 13 14 15 14 13 13
48 45 43 41 39 38 37 35 33 32 30 30 29 27 25 24 22 20 20 21 19 18 17 17 17 18 17 16 14 14 15 14 14 13 13 14 14 15 15 15 14 13
48 47 44 41 39 39 37 36 34 32 31 30 30 28 26 25 24 22 22 21 19 18 18 18 18 18 17 15 14 14 15 15 14 14 14 15 15 15 15 15 15 14
48 46 43 41 40 39 38 36 34 32 31 32 31 30 28 26 25 24 23 21 19 19 18 18 19 18 16 15 14 15 16 16 15 15 14 15 15 15 14 14 14 13
46 43 42 41 40 39 38 35 33 32 32 33 33 31 29 27 26 25 24 22 20 20 19 19 19 18 16 15 14 14 16 16 16 15 15 15 15 14 14 14 13 12
44 43 43 42 40 39 37 35 33 33 34 35 33 31 29 27 25 24 24 22 21 21 21 21 20 18 16 15 15 15 16 16 15 15 15 15 15 14 14 13 13 12
45 45 44 43 40 39 36 34 33 34 36 35 33 30 30 28 26 25 25 24 22 22 22 21 20 18 17 15 16 16 16 16 16 15 16 16 15 14 13 12 12 11
46 46 45 43 40 38 35 34 33 33 34 34 32 32 31 29 27 27 27 25 23 22 22 21 19 18 16 16 16 17 17 17 17 17 17 16 15 14 12 12 12 11
46 46 46 43 40 37 35 36 35 32 32 34 34 33 31 27 26 28 27 24 22 24 24 22 21 19 17 17 17 17 18 18 18 18 17 15 14 13 13 13 12 12
46 46 46 44 40 37 36 39 36 32 32 35 35 33 31 29 28 28 27 23 22 25 26 24 22 20 17 17 18 19 19 19 18 17 15 14 13 13 13 13 12 11
46 46 46 44 39 36 38 41 36 31 32 34 34 33 32 31 29 28 28 24 20 21 23 22 21 19 17 17 19 19 19 18 17 16 14 14 13 13 12 12 12 12
45 46 47 44 38 35 40 41 34 29 30 31 32 33 31 30 29 30 29 25 19 18 20 21 21 20 18 18 18 18 18 17 16 16 15 13 13 12 12 12 12 12
45 46 45 43 37 35 40 40 33 29 29 30 30 31 30 30 31 31 29 25 21 19 20 22 21 20 18 17 16 16 16 16 16 16 14 13 12 12 12 13 12 11
Wind_Direction
227 227 226 225 227 227 227 227 225 224 221 220 224 226 228 229 229 229 228 229 231 230 229 231 235 238 234 227 230 238 245 246 244 244 244 240 233 227 225 228 233 239
227 228 227 225 226 227 227 227 226 224 221 220 223 226 229 231 231 232 230 230 231 231 230 228 229 236 237 234 238 245 250 248 242 242 247 243 234 230 229 231 235 240
227 228 227 225 226 226 227 227 225 223 222 222 223 225 228 230 231 231 231 231 231 233 234 226 224 230 234 235 241 243 243 241 236 237 244 245 236 233 235 236 238 238
227 228 228 226 227 227 226 226 224 222 221 222 223 225 227 229 230 228 229 230 230 231 234 229 226 231 235 237 237 236 239 238 235 237 244 245 238 236 238 239 239 238
226 228 228 227 227 227 226 226 224 222 221 220 222 224 225 227 228 226 226 226 225 226 229 228 228 232 237 239 234 236 243 242 237 242 247 245 240 238 237 237 239 236
225 227 228 228 228 227 226 226 225 223 222 221 222 223 223 224 226 226 225 223 221 222 225 225 228 234 239 239 234 237 245 245 244 246 246 242 240 237 235 236 235 229
224 226 227 228 228 227 227 227 226 225 224 223 223 223 223 223 223 223 223 223 220 221 224 226 230 238 242 242 240 241 245 249 250 246 240 238 237 235 234 235 231 223
223 225 226 227 228 227 226 226 226 226 225 224 223 223 223 222 222 221 220 220 219 220 224 228 234 242 244 244 244 246 249 252 249 241 237 237 235 235 236 233 228 221
222 223 225 227 227 227 226 225 225 226 226 225 223 221 220 220 219 220 220 218 218 220 224 228 236 243 243 243 244 249 252 250 243 236 235 235 234 236 237 232 228 222
221 222 224 226 226 226 225 224 224 225 225 224 222 219 217 217 216 217 219 218 217 220 224 229 236 241 241 241 245 250 250 243 234 230 231 232 233 233 231 228 225 222
220 221 224 225 225 225 224 223 224 224 224 222 219 216 215 214 212 213 215 216 217 220 224 229 234 237 237 239 246 249 244 235 228 226 227 229 231 230 226 224 222 220
219 220 223 225 225 224 223 223 223 223 223 220 215 213 213 211 210 212 213 213 216 220 224 228 231 231 231 237 244 243 235 229 226 226 226 228 231 228 224 223 222 219
219 220 222 224 224 223 222 222 222 223 222 218 213 211 210 209 209 210 209 211 216 220 224 227 228 226 228 234 240 239 232 228 227 227 229 232 233 229 224 222 221 220
218 219 221 223 223 223 221 221 221 221 221 216 211 208 208 208 209 208 207 211 215 218 223 226 224 222 225 230 236 236 232 228 227 227 230 233 234 232 227 222 220 220
218 218 219 221 223 222 220 220 221 220 218 213 209 206 205 206 209 210 210 212 213 216 222 224 220 218 221 227 232 233 229 226 226 228 230 232 233 232 229 224 221 220
217 218 218 219 221 221 219 218 219 219 215 210 206 205 204 204 208 211 211 212 214 217 222 222 218 215 216 222 227 227 224 222 223 226 228 230 232 232 229 225 223 222
217 217 218 218 219 219 218 217 217 217 212 207 207 205 202 203 209 211 208 209 214 219 221 221 216 212 213 219 223 222 220 221 222 223 227 229 231 231 227 224 224 225
217 216 216 216 217 218 218 216 215 213 210 208 207 204 201 205 210 209 205 207 214 219 219 216 211 208 211 216 220 220 220 221 222 224 226 228 229 229 226 223 223 224
215 214 214 215 215 216 216 215 212 209 208 208 204 200 201 206 207 205 204 208 215 219 217 211 206 206 210 215 217 217 218 221 224 226 228 228 227 226 224 222 221 220
212 212 213 214 213 213 213 213 211 208 206 204 200 198 201 203 204 205 208 212 218 218 212 207 205 205 209 213 215 216 217 220 223 225 226 225 224 223 220 219 218 215
211 212 212 211 211 212 211 210 210 209 205 200 199 201 203 202 203 207 210 215 217 211 204 203 204 205 207 211 214 215 216 218 221 223 223 222 221 220 216 213 212 211
212 212 211 209 208 210 210 208 209 210 205 200 201 203 203 204 206 205 208 214 212 203 202 204 203 202 206 211 213 215 215 216 219 220 219 219 218 217 213 209 209 210
212 211 209 207 206 208 209 208 207 209 205 202 202 203 202 203 203 201 205 211 208 204 205 205 201 199 205 211 213 214 215 216 218 218 216 216 215 213 212 210 208 208
211 210 208 207 206 206 208 207 204 206 205 202 202 203 202 201 199 199 203 206 206 205 203 198 195 196 204 211 213 214 215 216 217 215 212 211 210 209 210 209 206 205
210 208 208 209 207 206 208 205 201 202 202 200 203 205 203 202 199 199 201 199 199 201 195 190 192 196 202 208 211 213 214 213 212 210 208 206 205 205 205 203 201 202
210 209 209 210 207 207 208 204 201 204 202 198 202 204 204 202 199 199 200 196 194 197 193 191 193 194 197 202 206 210 211 209 209 206 202 199 198 197 199 197 196 199